Moriarty, NM

4:33 AM MST on February 24, 2017 (GMT -0700)
Moriarty

Weather History for K0E0 - October, 2012

Change the Weather History Date:

Saturday, October 27, 2012

  Actual Average (KABQ) Record (KABQ)
Temperature  
Mean Temperature 36 °F -  
Max Temperature 62 °F 64 °F 80 °F (1952)
Min Temperature 11 °F 39 °F 21 °F (1913)
Degree Days  
Heating Degree Days 28    
Moisture  
Dew Point 13 °F    
Average Humidity 42    
Maximum Humidity 78    
Minimum Humidity 15    
Precipitation  
Precipitation 0.00 in - - ()
Sea Level Pressure  
Sea Level Pressure 30.20 in    
Wind  
Wind Speed 4 mph (WNW)    
Max Wind Speed 15 mph    
Max Gust Speed 23 mph    
Visibility 10 miles    
Events      
Averages and records for this station are not official NWS values.
T = Trace of Precipitation, MM = Missing Value Source: NWS Daily Summary

Daily Weather History Graph

Daily Weather History Graph

Search for Another Location

Airport or City:

Trip Planner

Search our weather history database for the weather conditions in past years. The results will help you decide how hot, cold, wet, or windy it might be!

Date:

Astronomy

Oct. 27, 2012 Rise Set
Actual Time 7:20 AM MDT 6:14 PM MDT
Civil Twilight 6:54 AM MDT 6:40 PM MDT
Nautical Twilight 6:25 AM MDT 7:09 PM MDT
Astronomical Twilight 5:55 AM MDT 7:39 PM MDT
Moon 4:59 PM MDT (10/27) 5:21 AM MDT (10/27)
Length of Visible Light 11h 45m
Length of Day
10h 53m
Waxing Gibbous, 96% of the Moon is Illuminated
Oct 27
Waxing Gibbous
Oct 29
Full
Nov 6
Last Quarter
Nov 13
New
Nov 20
First Quarter

Hourly Weather History & Observations

Time (MDT) Temp. Windchill Dew Point Humidity Pressure Visibility Wind Dir Wind Speed Gust Speed Precip Events Conditions
12:15 AM 27.3 °F 22.0 °F 18.3 °F 69% 30.32 in 10.0 mi SE 4.6 mph - N/A   Clear
12:35 AM 28.9 °F - 18.9 °F 66% 30.31 in 10.0 mi Calm Calm - N/A   Clear
12:55 AM 27.1 °F - 18.5 °F 70% 30.31 in 10.0 mi Calm Calm - N/A   Clear
1:15 AM 23.0 °F - 15.6 °F 73% 30.31 in 10.0 mi Calm Calm - N/A   Clear
1:55 AM 21.0 °F - 13.6 °F 73% 30.29 in 10.0 mi Calm Calm - N/A   Clear
2:15 AM 22.6 °F - 16.3 °F 77% 30.28 in 10.0 mi Calm Calm - N/A   Clear
2:35 AM 19.9 °F 14.9 °F 13.1 °F 75% 30.28 in 10.0 mi NNW 3.5 mph - N/A   Clear
2:55 AM 18.3 °F - 11.7 °F 75% 30.28 in 10.0 mi Calm Calm - N/A   Clear
3:15 AM 19.0 °F - 12.2 °F 75% 30.26 in 10.0 mi Calm Calm - N/A   Clear
3:35 AM 18.1 °F - 10.6 °F 72% 30.25 in 10.0 mi Calm Calm - N/A   Clear
3:55 AM 16.0 °F 8.8 °F 9.7 °F 76% 30.25 in 10.0 mi NNW 4.6 mph - N/A   Clear
4:15 AM 15.6 °F 7.0 °F 9.3 °F 76% 30.25 in 10.0 mi NNW 5.8 mph - N/A   Clear
4:35 AM 14.9 °F - 8.1 °F 74% 30.24 in 10.0 mi Calm Calm - N/A   Clear
4:55 AM 16.5 °F - 9.5 °F 74% 30.24 in 10.0 mi Calm Calm - N/A   Clear
5:15 AM 16.7 °F - 10.2 °F 76% 30.23 in 10.0 mi Calm Calm - N/A   Clear
5:35 AM 13.5 °F 7.5 °F 6.6 °F 74% 30.23 in 10.0 mi NNW 3.5 mph - N/A   Clear
5:55 AM 13.6 °F 6.0 °F 7.0 °F 75% 30.23 in 10.0 mi North 4.6 mph - N/A   Clear
6:15 AM 14.0 °F 5.1 °F 7.7 °F 76% 30.23 in 10.0 mi North 5.8 mph - N/A   Clear
6:35 AM 14.2 °F - 8.6 °F 78% 30.24 in 10.0 mi Calm Calm - N/A   Clear
6:55 AM 14.4 °F - 8.6 °F 78% 30.24 in 10.0 mi Calm Calm - N/A   Clear
7:15 AM 13.6 °F - 7.9 °F 78% 30.24 in 10.0 mi Calm Calm - N/A   Clear
7:35 AM 11.8 °F 5.7 °F 5.9 °F 77% 30.25 in 10.0 mi North 3.5 mph - N/A   Clear
7:55 AM 14.7 °F - 8.4 °F 76% 30.24 in 10.0 mi Calm Calm - N/A   Clear
8:35 AM 22.8 °F - 14.5 °F 71% 30.25 in 10.0 mi Calm Calm - N/A   Clear
9:15 AM 30.0 °F - 18.7 °F 63% 30.26 in 10.0 mi Calm Calm - N/A   Clear
9:55 AM 35.8 °F - 19.9 °F 53% 30.24 in 10.0 mi Calm Calm - N/A   Clear
10:15 AM 38.3 °F - 20.3 °F 48% 30.23 in 10.0 mi Calm Calm - N/A   Clear
10:35 AM 41.0 °F - 20.3 °F 44% 30.23 in 10.0 mi Calm Calm - N/A   Clear
10:55 AM 43.0 °F 41.3 °F 21.0 °F 42% 30.22 in 10.0 mi SSE 3.5 mph - N/A   Clear
11:15 AM 44.8 °F 43.3 °F 21.0 °F 39% 30.22 in 10.0 mi SE 3.5 mph - N/A   Clear
11:35 AM 46.9 °F - 21.0 °F 36% 30.21 in 10.0 mi Calm Calm - N/A   Clear
11:55 AM 48.2 °F - 21.0 °F 34% 30.20 in 10.0 mi Calm Calm - N/A   Clear
12:15 PM 51.1 °F - 21.2 °F 31% 30.19 in 10.0 mi South 3.5 mph - N/A   Clear
12:35 PM 53.4 °F - 20.3 °F 27% 30.17 in 10.0 mi WSW 6.9 mph - N/A   Clear
12:55 PM 55.4 °F - 19.2 °F 24% 30.16 in 10.0 mi SW 8.1 mph - N/A   Clear
1:15 PM 58.3 °F - 13.6 °F 17% 30.15 in 10.0 mi WNW 9.2 mph 18.4 mph N/A   Clear
1:35 PM 59.0 °F - 14.5 °F 18% 30.14 in 10.0 mi WNW 11.5 mph 23.0 mph N/A   Clear
1:55 PM 59.4 °F - 15.6 °F 18% 30.13 in 10.0 mi WNW 10.4 mph - N/A   Clear
2:15 PM 60.3 °F - 16.5 °F 18% 30.12 in 10.0 mi WNW 6.9 mph - N/A   Clear
2:35 PM 60.8 °F - 15.4 °F 17% 30.11 in 10.0 mi WNW 9.2 mph - N/A   Clear
2:55 PM 61.2 °F - 15.1 °F 17% 30.11 in 10.0 mi WNW 9.2 mph - N/A   Clear
3:15 PM 61.2 °F - 14.0 °F 16% 30.10 in 10.0 mi NW 10.4 mph 16.1 mph N/A   Clear
3:35 PM 62.2 °F - 14.0 °F 15% 30.10 in 10.0 mi WNW 13.8 mph 17.3 mph N/A   Clear
3:55 PM 62.4 °F - 14.0 °F 15% 30.10 in 10.0 mi WNW 13.8 mph - N/A   Clear
4:15 PM 62.4 °F - 13.5 °F 15% 30.10 in 10.0 mi WNW 15.0 mph - N/A   Clear
4:35 PM 61.9 °F - 13.5 °F 15% 30.10 in 10.0 mi WNW 12.7 mph 18.4 mph N/A   Clear
4:55 PM 61.7 °F - 12.7 °F 15% 30.11 in 10.0 mi NW 15.0 mph 19.6 mph N/A   Clear
5:15 PM 60.1 °F - 11.7 °F 15% 30.11 in 10.0 mi WNW 13.8 mph 20.7 mph N/A   Clear
5:35 PM 59.2 °F - 11.1 °F 15% 30.12 in 10.0 mi WNW 15.0 mph - N/A   Clear
5:55 PM 57.0 °F - 10.6 °F 16% 30.12 in 10.0 mi NW 13.8 mph - N/A   Clear
6:15 PM 54.7 °F - 9.5 °F 16% 30.13 in 10.0 mi WNW 15.0 mph - N/A   Clear
6:35 PM 53.4 °F - 9.9 °F 18% 30.13 in 10.0 mi NW 15.0 mph - N/A   Clear
6:55 PM 52.0 °F - 10.0 °F 19% 30.13 in 10.0 mi WNW 15.0 mph - N/A   Clear
7:15 PM 50.9 °F - 10.2 °F 20% 30.14 in 10.0 mi West 15.0 mph - N/A   Clear
7:35 PM 51.3 °F - 10.4 °F 19% 30.15 in 10.0 mi West 10.4 mph - N/A   Clear
7:55 PM 49.5 °F - 10.0 °F 20% 30.16 in 10.0 mi East 3.5 mph - N/A   Clear
8:15 PM 46.6 °F - 10.0 °F 23% 30.16 in 10.0 mi Calm Calm - N/A   Clear
8:35 PM 49.3 °F - 11.3 °F 22% 30.16 in 10.0 mi West 6.9 mph - N/A   Clear
8:55 PM 45.9 °F 43.6 °F 10.4 °F 24% 30.17 in 10.0 mi SSE 4.6 mph - N/A   Clear
9:15 PM 47.5 °F - 10.9 °F 23% 30.17 in 10.0 mi South 6.9 mph - N/A   Clear
9:35 PM 48.6 °F - 10.9 °F 22% 30.17 in 10.0 mi North 3.5 mph - N/A   Clear
9:55 PM 49.6 °F - 10.8 °F 21% 30.18 in 10.0 mi WNW 8.1 mph - N/A   Clear
10:15 PM 46.4 °F 42.9 °F 10.8 °F 24% 30.19 in 10.0 mi NW 6.9 mph - N/A   Clear
10:35 PM 49.8 °F - 9.5 °F 20% 30.19 in 10.0 mi WNW 11.5 mph 20.7 mph N/A   Clear
10:55 PM 46.4 °F 42.9 °F 10.2 °F 23% 30.20 in 10.0 mi NW 6.9 mph - N/A   Clear
11:15 PM 41.9 °F 38.2 °F 10.0 °F 27% 30.20 in 10.0 mi SSE 5.8 mph - N/A   Clear
11:35 PM 38.8 °F - 9.5 °F 30% 30.21 in 10.0 mi Calm Calm - N/A   Clear
11:55 PM 45.7 °F - 9.5 °F 23% 30.20 in 10.0 mi Calm Calm - N/A   Clear